Content
SEND FEEDBACK

Daily
Averages
Monthly
Summary
United States of America

DEDEDO, GUAM


Home > North America > United States > Guam
Elevation: 364 feet     Latitude: 13 33N     Longitude: 144 49E

WEATHER
 
SELECT A DAY
Number of Records: 209,106;   Date Range: 1/1/95 - 8/12/14
 
SHARE

PRINT THIS DATA

[ ← Previous Day ]
WEATHER ALMANAC - FEBRUARY 25, 2013
[ Next Day → ]
[ °C ]   °F
Weather ElementAverageHighLow
Temperature80.8 °F86 °F (12:54 pm)75 °F (5:54 am)
Dewpoint72.3 °F73.8 °F (9:54 pm)70 °F (7:54 am)
Humidity75.8 %91 % (7:54 pm)63 % (11:54 am)
Barometer29.90 in29.95 in (8:54 am)29.85 in (3:54 pm)
Wind Speed16.6 mph21.9 mph (1:16 pm)
Wind Gust32.2 mph (1:43 pm)
Weather ElementAverage
Visibility9.9 mi
Wind DirectionENE (50.7 °)

Weather ElementTotal
Precipitation0.12 in
Cooling Degree Days15.5 (Base 65)
Growing Degree Days30.5 (Base 50)
Averaged from 28 records on February 25, 2013
WEATHER CONDITIONS BREAKOUT
WIND DIRECTION BREAKOUT
WEATHER BY HOUR - FEBRUARY 25, 2013
[ °C ]   °F
Local TimeTemperatureDewpointHumidityBarometerVisibilityWind DirectionWind SpeedGust SpeedPrecipitationEventsConditions
1:54 AM75.9 °F71.1 °F85 %29.90 in10.0 miENE (60°)9.2 mphClear
2:54 AM77.5 °F71.8 °F82 %29.89 in10.0 miENE (60°)12.7 mph20.7 mphMostly Cloudy
3:54 AM77.2 °F72.0 °F84 %29.88 in10.0 miENE (60°)12.7 mphPartly Cloudy
4:54 AM77.5 °F72.5 °F84 %29.88 in10.0 miNE (50°)10.4 mphClear
5:54 AM75.0 °F71.1 °F87 %29.89 in10.0 miNE (50°)10.4 mphClear
6:54 AM75.9 °F71.1 °F85 %29.91 in10.0 miENE (70°)11.5 mphClear
7:54 AM78.1 °F70.0 °F76 %29.94 in10.0 miENE (60°)11.5 mphPartly Cloudy
8:54 AM81.3 °F72.5 °F74 %29.95 in10.0 miNE (50°)16.1 mph21.9 mphPartly Cloudy
9:54 AM84.2 °F71.6 °F66 %29.95 in10.0 miNE (40°)19.6 mph26.5 mphScattered Clouds
10:54 AM84.4 °F71.2 °F65 %29.94 in10.0 miENE (60°)20.7 mph25.3 mphClear
11:54 AM85.8 °F71.8 °F63 %29.92 in10.0 miENE (60°)19.6 mph27.6 mphScattered Clouds
12:54 PM86.0 °F73.4 °F66 %29.90 in10.0 miNE (40°)18.4 mph26.5 mphMostly Cloudy
1:16 PM82.4 °F73.4 °F74 %29.91 in10.0 miNE (50°)21.9 mph26.5 mph0.03 inMostly Cloudy
1:43 PM84.2 °F73.4 °F70 %29.91 in10.0 miNE (50°)21.9 mph32.2 mph0.03 inMostly Cloudy
1:50 PM84.2 °F73.4 °F70 %29.90 in10.0 miNE (50°)20.7 mph32.2 mph0.03 inMostly Cloudy
1:54 PM84.6 °F73.4 °F69 %29.88 in10.0 miNE (40°)18.4 mph27.6 mph0.03 inMostly Cloudy
2:45 PM84.2 °F71.6 °F66 %29.89 in10.0 miENE (60°)19.6 mphMostly Cloudy
2:54 PM84.2 °F72.3 °F67 %29.86 in10.0 miNE (50°)20.7 mphMostly Cloudy
3:12 PM86.0 °F73.4 °F66 %29.88 in10.0 miNE (50°)20.7 mphScattered Clouds
3:54 PM84.6 °F72.9 °F68 %29.85 in10.0 miNE (40°)18.4 mph24.2 mphPartly Cloudy
4:54 PM82.9 °F70.0 °F65 %29.87 in10.0 miENE (60°)19.6 mph26.5 mphPartly Cloudy
5:54 PM81.0 °F72.0 °F74 %29.89 in10.0 miNE (40°)16.1 mph0.00 inRainLight Rain
6:54 PM78.1 °F73.0 °F84 %29.90 in8.0 miNE (50°)20.7 mph28.8 mph0.00 inRainRain
7:54 PM75.9 °F73.0 °F91 %29.91 in10.0 miNE (40°)10.4 mph0.00 inScattered Clouds
8:54 PM75.9 °F72.0 °F87 %29.93 in10.0 miNE (50°)16.1 mphOvercast
9:54 PM78.8 °F73.8 °F84 %29.93 in10.0 miNE (40°)16.1 mphOvercast
10:54 PM78.3 °F73.8 °F86 %29.92 in10.0 miNE (40°)15.0 mphOvercast
11:54 PM77.0 °F72.0 °F84 %29.92 in10.0 miNE (50°)15.0 mphOvercast
Hourly data recorded from PGUM, located miles away from Dededo, Guam







STORIES FROM OUR PARTNERS